Home > Weather > Bogota > Past weeks

Flag for Colombia Past Weather in Bogota, Colombia — Yesterday and Last 2 Weeks

Now
52 °F

Passing clouds.


Feels Like: 52 °F
Forecast: 46 / 66 °F
Wind: 2 mph from North

Location: Bogota / Eldorado

Current Time: May 30, 2016 at 3:52:11 AM

Latest Report: May 30, 2016 at 3:00 AM


Visibility: N/A

Pressure: 30.36 "Hg (22.16 "Hg at 2618m altitude)

Humidity: 94%

Dew Point: 50 °F

Location of BogotaLocation

Past Weather in Bogota — Graph

°F

Bogota Temperature Yesterday

Maximum temperature yesterday: 64 °F (at 1:00 PM)
Minimum temperature yesterday: 52 °F (at 5:00 AM)
Average temperature yesterday: 58 °F

High & Low Weather Summary for the Past Weeks

 TemperatureHumidityPressure
High70 °F (May 17, 2:00 PM)100% (May 27, 5:00 AM)30.46 "Hg (May 27, 5:00 AM)
Low48 °F (May 25, 1:00 AM)40% (May 17, 2:00 PM)29.36 "Hg (May 18, 7:00 AM)
Average59 °F75%30.37 "Hg
* Reported May 15 2:00 AM — May 30 2:00 AM, Bogota, Weather by CustomWeather, © 2016

Note: Actual official high and low records may vary slightly from our data, if they occured in-between our weather recording intervals... More about our weather records

Advertising

Bogota Weather History for the Previous 24 Hours

Scroll right to see more
 ConditionsComfort  
Time TempWeatherWind HumidityBarometerVisibility
2:00 AM
Mon, May 30
55 °FPassing clouds.2 mph88%30.37 "HgN/A
1:00 AM55 °FPassing clouds.7 mph88%30.38 "HgN/A
12:00 AM54 °FPassing clouds.5 mph88%30.40 "HgN/A
11:00 PM
Sun, May 29
54 °FPassing clouds.5 mph94%30.42 "HgN/A
10:00 PM55 °FPassing clouds.2 mph82%30.41 "HgN/A
9:00 PM57 °FPassing clouds.5 mph82%30.40 "HgN/A
8:00 PM57 °FPassing clouds.5 mph77%30.38 "HgN/A
7:00 PM59 °FPassing clouds.5 mph68%30.36 "HgN/A
6:00 PM61 °FScattered clouds.7 mph68%30.34 "HgN/A
5:00 PM63 °FScattered clouds.6 mph68%30.32 "HgN/A
4:00 PM63 °FScattered clouds.8 mph73%30.31 "HgN/A
3:00 PM63 °FScattered clouds.2 mph68%30.33 "HgN/A
2:00 PM64 °FScattered showers. Partly sunny.2 mph60%30.35 "HgN/A
1:00 PM64 °FScattered showers. Broken clouds.6 mph56%30.38 "HgN/A
12:00 PM63 °FScattered showers. Broken clouds.3 mph59%30.41 "HgN/A
11:00 AM63 °FScattered showers. Broken clouds.8 mph64%30.42 "HgN/A
10:00 AM59 °FBroken clouds.3 mph72%30.44 "HgN/A
9:00 AM59 °FBroken clouds.2 mph82%30.44 "HgN/A
8:00 AM55 °FScattered showers. Partly sunny.3 mph88%30.43 "HgN/A
7:00 AM54 °FPartly sunny.2 mph88%30.41 "HgN/A
6:00 AM52 °FBroken clouds.6 mph94%30.39 "HgN/A
5:00 AM52 °FPassing clouds.5 mph94%30.38 "HgN/A
4:00 AM54 °FPassing clouds.7 mph88%30.37 "HgN/A
3:00 AM54 °FPassing clouds.6 mph88%30.38 "HgN/A
Weather by CustomWeather, © 2016

See weather overviewHow to use our weather pages